Location: Unspecified
(0.0000°N, 0.0000°E)
Time: 10:20:25
(UTC+00:00)

Kosmos-1429 - Pass Details

Date: 23 February 2024
Orbit: 1466 x 1518 km, 74.0° (Epoch: 13 April)

Event Time Altitude Azimuth Distance (km) Brightness Sun altitude
Rises 18:38:12 0° 348° (NNW) 4,649 ? -6.1°
Reaches altitude 10° 18:41:07 10° 348° (NNW) 3,667 ? -6.8°
Maximum altitude 18:50:06 89° 258° (WSW) 1,510 ? -9.0°
Drops below altitude 10° 18:59:01 10° 168° (SSE) 3,645 ? -11.2°
Sets 19:01:55 0° 168° (SSE) 4,620 ? -12.0°
